Location: Complexul Astronomic Baia Mare
(47.6577°N, 23.5639°E)
Time: 13:28:29
(UTC+03:00)

ISS - Pass Details

Date: 05 June 2017
Orbit: 401 x 408 km, 51.6° (Epoch: 23 June)

Event Time Altitude Azimuth Distance (km) Brightness Sun altitude
Rises 22:06:27 0° 292° (WNW) 2,341 1.5 -6.9°
Reaches altitude 10° 22:08:34 10° 296° (WNW) 1,477 0.4 -7.1°
Maximum altitude 22:11:51 58° 17° (NNE) 483 -3.3 -7.5°
Drops below altitude 10° 22:15:06 10° 98° (E) 1,470 -1.5 -7.9°
Enters shadow 22:15:49 - 100° (E) 1,760 -1.1 -8.0°
